CAPE
154 132 130 123 132 112 112 123 115 124 145 259 207 224 219 32 0 0 0 0 0 0 0 0 0 0 0 0 0 0 0 0 0 0 0 0 0 0 0 0 0 0 0 0 0
173 150 139 122 135 145 112 126 120 87 194 235 190 214 204 0 0 0 0 1 0 0 0 0 0 0 0 0 0 0 0 0 0 0 0 0 0 0 0 0 0 0 0 0 4
149 152 141 128 135 161 151 122 156 126 121 222 225 170 69 0 16 0 72 151 117 9 0 0 0 0 0 0 0 0 0 0 0 0 0 0 0 0 0 0 0 0 0 0 0
134 137 138 144 134 171 195 151 135 134 195 310 332 308 17 0 20 0 305 451 161 0 0 0 0 0 0 0 0 0 0 0 0 0 0 0 0 0 0 0 0 0 0 0 0
103 120 151 159 149 173 228 196 171 147 119 282 402 53 13 43 1 0 0 521 0 0 0 0 0 0 0 0 0 0 0 0 0 0 0 0 0 0 0 0 0 0 0 0 1
134 121 157 155 215 265 254 269 203 164 161 207 420 104 71 25 0 0 93 29 0 0 0 7 0 0 0 0 0 0 0 0 0 0 0 0 0 0 0 0 0 0 0 0 0
107 137 145 169 214 250 222 274 241 187 151 204 309 154 120 0 0 0 155 12 0 0 0 3 0 0 0 0 0 0 0 0 0 0 0 0 0 0 0 0 0 0 0 0 0
112 71 182 207 216 268 191 244 228 211 212 307 417 208 51 12 1 31 0 0 0 0 0 0 0 0 0 0 0 0 0 0 0 0 0 0 0 0 0 0 0 0 0 0 0
105 107 188 304 231 220 225 299 146 247 290 222 214 129 41 30 37 50 0 17 5 1 0 0 0 0 0 0 0 0 0 0 0 0 0 0 0 0 0 0 0 0 0 0 0
120 148 107 24 316 258 285 294 236 238 142 103 87 111 16 5 15 59 14 12 66 43 18 7 0 0 0 0 0 0 0 0 0 0 0 0 0 0 0 0 0 0 0 0 0
185 170 133 55 5 386 430 234 31 54 48 0 0 0 0 1 14 0 28 4 42 105 90 9 40 2 0 0 0 0 0 0 0 0 0 0 0 0 0 0 0 0 0 0 0
237 235 176 35 10 327 231 169 0 0 13 0 1 7 4 4 1 5 51 24 30 32 20 26 31 0 0 0 0 0 0 0 0 0 0 0 0 0 0 0 0 0 0 0 0
272 229 152 75 71 60 120 39 0 0 0 0 4 16 37 29 3 3 12 31 20 10 23 20 0 0 0 0 0 0 4 3 0 0 0 0 0 0 0 0 0 0 0 0 0
332 279 141 102 52 1 99 0 0 0 0 1 19 14 44 2 25 0 17 22 15 11 16 36 4 0 1 1 1 14 0 1 10 3 0 0 0 0 0 0 0 0 0 0 0
378 319 161 154 26 0 100 0 0 0 0 0 3 0 0 15 0 31 0 18 7 3 1 0 0 1 23 10 1 12 0 0 0 0 0 0 8 0 0 0 0 0 0 0 0
346 315 193 111 36 0 22 0 0 1 0 12 7 19 23 5 1 68 116 1 0 4 0 0 0 1 0 0 0 0 0 0 0 0 15 0 0 0 0 0 0 0 0 0 0
340 288 167 59 32 15 11 0 0 0 0 1 7 8 0 4 9 18 67 64 34 2 2 2 7 0 0 5 0 1 12 11 34 21 0 0 0 0 0 0 0 0 0 0 0
348 303 107 15 14 25 36 0 0 0 0 0 10 11 5 5 19 20 11 27 23 0 3 1 11 11 0 0 1 8 3 1 0 0 0 0 0 0 0 0 0 0 0 0 0
368 137 62 62 26 58 33 0 0 0 0 6 17 10 22 19 17 27 10 3 1 0 0 0 0 0 2 1 0 1 7 0 1 1 0 0 0 0 0 0 0 0 0 0 0
117 52 37 17 48 85 1 0 0 0 0 1 0 1 4 5 10 2 15 4 2 0 0 0 0 0 0 0 0 3 0 31 14 4 3 0 0 0 0 0 0 0 0 0 0
81 60 31 39 47 15 0 0 0 0 0 0 0 0 0 4 0 0 0 0 6 5 0 0 0 0 0 0 0 1 15 6 15 1 0 0 0 0 0 0 0 0 0 0 0
36 0 26 29 0 0 0 0 0 0 0 0 0 0 0 0 0 0 0 0 0 1 7 0 0 0 0 0 0 0 0 3 16 0 3 1 0 0 0 0 0 0 0 0 0
0 19 51 27 0 0 0 0 0 0 0 0 0 0 0 0 3 0 0 0 0 1 0 0 0 0 0 0 0 7 1 2 4 0 0 0 0 0 0 0 0 0 0 0 0
0 48 61 18 3 0 0 0 0 0 0 0 0 0 0 0 0 0 0 0 0 0 0 0 0 0 0 0 0 0 0 0 13 0 0 0 0 0 0 0 0 0 0 0 0
7 10 0 24 0 0 0 0 0 0 0 0 0 0 0 0 0 0 0 0 0 0 0 0 0 0 0 0 0 0 0 0 0 0 0 0 0 0 0 0 0 0 0 0 0
0 1 0 0 1 0 0 0 0 0 0 0 0 0 0 0 0 0 0 0 0 0 1 4 0 0 0 0 1 0 0 0 0 0 0 0 0 0 0 0 0 0 0 0 0
1 0 0 1 0 0 0 0 0 0 0 0 0 0 0 0 0 0 0 0 0 0 0 1 0 1 0 0 0 0 0 0 0 0 0 0 0 0 0 0 0 0 0 0 0
CIN
0 0 0 0 0 0 -1 -3 -7 -120 -145 -58 -105 -116 -80 -155 0 0 0 0 0 0 0 0 0 0 0 0 0 0 0 0 0 0 0 0 0 0 0 0 0 0 0 0 0
0 0 0 0 0 0 -1 -83 -88 -19 -112 -81 -94 -97 -88 0 0 0 0 -87 0 0 0 0 0 0 0 0 0 0 0 0 0 0 0 0 0 0 0 0 0 0 0 0 0
0 0 0 0 0 0 -80 -71 -64 -92 -122 -99 -75 -130 -188 0 -22 0 -119 -114 -115 -47 0 0 0 0 0 0 0 0 0 0 0 0 0 0 0 0 0 0 0 0 0 0 0
0 0 0 0 0 -2 -35 -55 -74 -89 -58 -33 -47 -44 -89 -9 -3 0 -109 -89 -94 0 0 0 0 0 0 0 0 0 0 0 0 0 0 0 0 0 0 0 0 0 0 0 0
0 0 -15 -20 0 -25 -14 -31 -46 -73 -112 -38 -20 -92 -22 -7 -2 0 0 -56 0 0 0 0 -21 0 0 0 0 0 0 0 0 0 0 0 0 0 0 0 0 0 0 0 0
0 -1 -29 -50 -31 -2 -4 -5 -21 -43 -64 -42 -16 -35 -3 -1 0 0 -178 -140 0 0 0 -119 0 0 0 0 0 0 0 0 0 0 0 0 0 0 0 0 0 0 0 0 0
-2 0 0 -27 -32 -21 -12 -1 -6 -25 -52 -35 -16 -41 0 0 0 0 -160 -157 0 0 0 -148 0 0 0 0 0 0 0 0 0 0 0 0 0 0 0 0 0 0 0 0 0
-2 -2 -2 -3 -7 -11 -34 -15 -17 -14 -20 -10 -9 -11 -3 -60 -15 -63 0 0 0 0 0 0 0 0 0 0 0 0 0 0 0 0 0 0 0 0 0 0 0 0 0 0 0
0 -1 -7 0 -5 -6 -13 -7 -15 -12 -7 -28 -3 0 -7 -40 -17 -64 0 -85 -123 -18 0 0 0 0 0 0 0 0 0 0 0 0 0 0 0 0 0 0 0 0 0 0 0
-1 0 -9 -19 -1 -7 -6 -8 -10 -2 -9 -36 -22 -4 -3 -2 -39 -64 -101 -60 -48 -52 -67 -42 0 0 0 0 0 0 0 0 0 0 0 0 0 0 0 0 0 0 0 0 0
0 -2 -2 -2 -23 -1 -2 -2 -24 0 -1 0 0 0 0 -44 -65 -1 -61 -45 -27 -13 -1 -23 -4 -1 0 0 0 0 0 0 0 0 0 0 0 0 0 0 0 0 0 0 0
0 0 -1 -27 -8 0 -4 0 0 0 -1 0 -2 -25 -60 -46 -3 -69 -30 -10 -7 -4 -16 -13 -1 0 0 0 0 0 0 0 0 0 0 0 0 0 0 0 0 0 0 0 0
0 0 0 -8 -4 -2 -1 -2 0 0 0 0 -6 -5 -37 -83 -31 0 -12 -6 -3 -5 -12 -2 0 0 0 0 0 0 -2 -3 0 0 0 0 0 0 0 0 0 0 0 0 0
0 0 -1 -15 -1 0 0 0 0 0 0 0 -1 -5 -39 -9 -11 0 -67 -22 -13 0 0 -2 -11 0 -18 -14 -9 -1 0 -8 -12 -3 0 0 0 0 0 0 0 0 0 0 0
0 0 -12 -21 -4 0 -4 0 0 0 0 0 -9 -4 0 -7 -1 -1 0 -53 -11 -41 -5 0 -5 -18 -16 -22 -16 -5 0 0 -13 0 -1 0 -1 0 0 0 0 0 0 0 0
0 0 -12 -16 -4 0 -5 0 0 0 0 -1 -7 -5 -8 -18 -2 -14 -4 -36 0 -26 0 -2 0 -15 -2 0 -25 0 0 0 0 -4 0 0 0 0 0 0 0 0 0 0 0
0 -1 -1 -4 -1 -9 -3 0 0 0 0 -1 -3 -4 -1 -2 -3 -9 -1 -1 -2 -1 0 -1 -14 0 0 -11 0 -7 -2 -4 -1 -1 0 0 0 0 0 0 0 0 0 0 0
0 -1 -2 -4 -9 -6 0 -1 0 0 0 0 -2 -2 0 -3 -4 -2 -17 -2 -14 0 0 0 -1 -9 0 -2 -1 -8 -6 -7 0 0 0 0 0 0 0 0 0 0 0 0 0
0 -2 -6 -4 -8 0 0 0 0 0 0 -1 0 -1 -1 -2 -9 -6 -2 -2 -7 0 0 0 0 0 -37 -16 0 -8 -3 0 -1 0 -1 0 0 0 0 0 0 0 0 0 0
-3 -3 -2 -6 -6 0 0 0 0 0 0 -3 -2 -2 -2 -1 -5 -8 -2 -2 -5 0 0 0 0 0 0 0 0 -11 0 -1 -3 -6 -3 0 0 0 0 0 0 0 0 0 0
-3 0 -5 -19 -1 0 0 0 0 0 0 0 0 0 0 -1 0 -1 0 0 -18 -12 0 0 0 0 0 0 0 0 -1 -5 -1 0 -9 0 0 0 0 0 0 0 0 0 0
-2 0 -1 -2 0 0 0 0 0 0 0 0 0 0 0 -1 -10 0 0 0 0 -5 -8 0 0 0 -1 -1 0 0 0 -7 -27 0 0 0 0 0 0 0 0 0 0 0 0
0 -4 -1 -3 0 0 0 0 0 0 0 0 0 0 0 0 -8 0 0 0 0 -14 0 0 0 0 0 0 0 -5 -4 -6 -1 0 0 -2 0 0 0 0 0 0 0 0 0
-1 -3 -7 0 0 0 0 0 0 0 0 0 0 0 0 0 0 0 0 0 0 0 0 0 0 0 0 0 0 0 0 0 -20 -2 0 0 0 0 0 0 0 0 0 0 0
-34 -9 0 -3 0 0 0 0 0 0 0 0 0 0 0 0 0 0 0 0 0 -37 0 0 0 0 0 0 0 0 0 0 -5 0 0 0 0 0 0 0 0 0 0 0 0
0 0 0 0 0 0 0 0 0 0 0 0 0 0 0 0 0 0 0 -1 0 0 -51 -35 0 0 0 0 0 0 0 0 0 0 0 0 0 0 0 0 0 0 0 0 0
0 0 0 0 0 0 0 0 0 0 0 0 0 0 0 0 0 0 0 0 0 0 0 -3 0 -6 0 0 0 0 0 0 0 0 0 0 0 0 0 0 0 0 0 0 0
Wind_Speed
22 21 21 19 17 16 15 14 15 13 11 12 13 9 10 10 7 4 4 4 1 1 1 1 4 4 4 4 4 0 3 2 3 5 4 1 2 1 1 5 2 4 3 1 9
24 23 22 22 20 18 17 14 13 16 13 13 12 9 11 11 4 5 5 6 4 1 1 2 2 3 4 2 2 4 3 5 2 2 2 3 2 5 2 2 3 2 2 3 12
25 24 23 22 22 19 18 16 12 12 15 12 11 12 14 5 2 7 15 13 6 5 1 3 4 3 3 1 1 3 3 1 2 1 2 4 1 2 5 3 7 8 6 10 13
26 26 25 24 23 21 20 17 14 12 12 11 11 8 12 4 10 2 14 19 10 6 3 4 4 3 3 3 1 3 4 4 3 2 5 4 6 4 6 5 1 6 5 11 15
24 26 26 25 24 23 21 19 16 14 13 11 12 17 5 3 11 0 4 9 10 7 7 5 4 4 5 4 3 3 3 2 2 6 5 5 5 5 6 6 2 3 6 12 14
21 25 27 26 25 24 23 20 18 15 12 11 13 16 5 19 6 6 8 8 6 6 6 7 8 5 5 3 4 2 2 4 4 2 4 3 4 1 4 3 1 3 6 7 12
14 22 26 27 26 25 24 21 19 16 13 10 16 10 9 17 3 3 10 7 6 5 6 3 6 4 6 4 2 1 3 5 3 3 4 4 6 8 6 1 5 6 6 7 8
20 16 23 27 26 25 24 21 20 15 11 10 16 6 8 2 5 4 5 4 6 5 5 5 5 5 4 3 4 1 3 0 3 3 4 6 10 3 6 4 8 7 6 7 10
22 15 15 25 27 26 25 21 19 14 11 9 6 6 3 8 5 4 1 9 6 3 5 3 5 4 2 6 3 3 4 4 6 5 1 6 6 4 1 6 8 6 7 7 8
22 20 12 9 26 26 25 22 17 13 5 4 2 7 7 9 7 6 3 7 5 9 5 5 3 4 1 5 11 6 4 3 3 2 1 3 11 8 6 2 6 8 7 8 10
24 24 21 15 12 28 23 12 9 6 12 13 9 2 9 7 5 5 5 4 5 4 10 5 7 18 13 4 5 7 3 3 3 3 2 4 9 14 10 6 7 9 10 10 13
26 25 24 20 15 23 22 18 15 8 12 11 1 8 3 2 8 3 8 9 8 11 8 5 17 8 9 8 5 5 4 2 4 2 1 7 11 16 8 11 11 14 13 14 13
27 25 25 21 21 12 30 26 15 9 8 7 4 7 5 5 5 17 17 6 2 8 14 12 3 12 8 4 7 4 9 3 5 6 3 6 9 12 7 6 8 11 14 13 14
26 25 26 21 11 13 24 23 17 5 5 8 11 6 4 5 3 3 12 8 6 13 7 6 1 11 8 6 7 8 6 4 3 1 7 2 9 9 5 9 7 11 10 13 15
25 26 27 28 3 7 19 25 14 4 10 12 9 4 8 10 6 6 3 1 8 8 7 3 7 8 5 5 6 3 6 7 4 3 3 6 5 10 2 6 9 9 11 13 14
25 25 27 16 13 4 18 25 7 8 8 11 13 14 13 6 3 7 5 4 4 4 5 3 1 6 8 4 8 7 5 3 3 2 6 7 10 5 6 6 4 9 10 11 10
28 25 24 13 16 10 15 17 12 11 6 14 20 21 22 13 12 11 17 13 10 7 11 5 4 2 5 6 2 4 6 1 3 4 9 2 5 13 10 6 7 10 11 12 7
29 27 21 13 11 13 12 16 11 10 15 8 22 22 15 18 9 10 17 14 9 6 4 10 7 9 5 7 8 9 8 4 6 5 4 3 10 8 14 14 10 9 14 11 10
28 14 14 15 17 12 14 19 10 19 15 21 21 24 11 15 10 7 13 19 18 11 10 5 3 4 2 4 7 4 9 6 2 2 1 5 10 10 8 12 8 14 9 12 7
15 13 14 17 16 14 15 8 4 7 16 22 18 16 21 26 12 11 18 16 12 12 4 7 5 1 3 5 4 2 4 3 4 5 5 6 7 14 8 14 13 7 9 6 6
13 12 12 17 7 7 17 6 6 7 24 12 11 12 12 27 17 17 18 1 9 14 6 5 5 4 6 6 10 3 3 2 2 3 4 3 10 7 13 12 9 7 5 5 9
11 6 14 14 10 3 9 12 8 17 5 6 8 6 13 22 8 10 9 2 9 16 14 2 4 5 2 3 4 6 9 6 4 3 3 2 12 7 9 3 4 7 8 6 7
11 5 12 13 11 7 6 9 7 12 5 5 6 5 15 17 8 6 5 3 7 18 19 10 4 5 2 4 3 6 7 6 4 3 10 3 11 3 7 8 6 10 14 9 6
6 7 8 9 3 11 16 19 12 7 7 8 8 20 14 14 7 7 5 2 1 6 9 11 5 6 9 6 7 7 7 14 14 6 6 19 30 14 16 16 20 20 22 22 15
3 4 1 15 8 19 12 25 23 9 5 6 4 17 18 7 5 6 6 5 4 9 4 6 5 4 1 5 4 4 6 12 17 19 10 23 19 2 5 7 7 8 10 18 19
7 6 4 12 15 23 20 16 25 6 5 3 13 12 9 13 8 13 9 4 5 1 5 0 5 4 2 2 4 6 8 9 11 11 17 15 34 8 3 6 7 12 14 16 18
2 2 11 17 14 18 7 12 11 10 10 10 21 13 9 6 10 8 6 6 9 9 5 7 6 4 3 1 3 8 16 12 8 12 16 20 36 16 9 15 18 20 19 17 17
Wind_Direction
223 225 224 221 221 220 221 226 225 205 209 197 203 211 153 133 92 67 237 231 146 129 129 94 37 359 50 78 73 156 70 205 238 183 249 15 211 330 19 119 242 181 165 187 143
223 221 222 223 217 215 220 220 227 222 206 205 212 194 164 142 99 220 223 283 272 284 55 107 109 23 54 72 49 96 131 216 249 247 279 306 221 187 159 126 236 235 146 109 152
226 221 219 219 219 213 213 211 212 223 215 205 204 205 144 158 53 231 189 211 223 238 89 97 96 82 86 82 93 130 197 258 289 300 18 308 245 212 144 239 221 206 169 158 169
229 222 216 216 215 214 210 208 206 208 208 204 187 165 152 141 236 214 196 176 164 196 134 103 71 87 123 169 121 134 232 202 293 38 356 321 316 247 200 223 311 229 151 166 180
236 225 218 212 210 211 208 206 199 200 214 209 192 139 112 177 233 284 144 169 137 159 171 156 138 138 176 154 126 160 245 198 295 290 279 295 267 265 247 252 17 103 172 186 188
240 230 223 213 209 206 205 203 200 197 203 214 187 152 176 229 177 143 123 133 152 155 179 154 176 169 119 127 169 188 270 275 272 258 269 266 272 311 303 152 154 170 218 210 203
231 232 224 217 210 206 203 201 202 198 196 207 199 161 210 221 15 177 136 174 160 155 166 175 151 147 135 137 194 171 314 330 245 225 239 175 279 222 244 180 232 232 225 232 223
231 243 226 215 210 206 204 198 199 190 187 194 175 177 250 104 80 107 119 95 132 151 152 160 123 100 113 123 48 107 63 156 281 183 254 145 262 242 245 206 251 253 245 240 232
234 225 221 222 209 201 199 195 191 186 182 190 160 194 233 131 199 169 91 153 128 90 87 121 82 118 103 110 49 12 226 205 313 208 253 181 270 264 9 206 250 254 261 249 260
226 226 208 218 219 197 192 187 172 141 122 63 32 177 205 185 142 132 75 134 150 144 100 106 104 117 57 146 211 177 215 249 229 335 319 269 263 259 282 195 261 273 265 261 259
223 216 214 201 237 202 180 163 171 149 191 189 201 140 136 146 97 148 124 106 128 170 175 177 174 206 195 158 121 129 154 193 243 289 293 250 266 277 273 264 253 251 256 253 245
223 217 217 219 219 222 181 192 166 160 178 236 358 153 107 189 143 153 137 176 182 180 126 152 212 172 142 157 132 130 135 233 277 349 228 290 275 277 248 254 233 242 244 248 244
219 215 214 215 225 253 187 186 166 139 128 210 191 181 161 148 136 181 173 174 291 151 182 184 189 143 137 150 153 170 222 195 251 328 291 315 273 261 258 253 252 247 244 250 243
218 214 204 198 214 248 196 165 173 192 117 175 195 214 120 117 205 136 187 167 171 194 198 205 79 147 154 174 153 224 165 242 281 323 268 14 294 265 228 252 245 256 232 241 248
214 212 201 192 170 214 181 161 161 70 181 165 168 122 131 160 122 188 200 86 154 142 142 200 156 133 153 163 153 204 151 183 184 203 328 219 261 271 293 252 262 263 255 239 240
209 207 202 200 200 193 178 156 119 152 184 167 148 161 137 157 165 125 146 71 79 105 80 159 357 156 164 129 156 142 97 89 82 122 250 198 192 251 235 214 238 257 263 259 243
207 202 200 188 200 175 182 148 169 194 131 160 169 161 167 168 158 178 177 176 165 161 168 151 159 136 132 111 83 150 131 218 217 198 243 322 203 249 279 252 233 242 259 263 261
199 197 202 200 190 173 203 158 185 151 161 182 154 149 171 142 185 179 179 185 172 129 155 161 178 164 181 168 161 176 177 174 208 203 272 315 243 255 230 259 258 256 255 276 274
193 196 191 191 182 201 195 189 154 157 157 151 138 153 150 169 130 151 191 195 190 180 141 140 152 27 106 122 134 186 202 198 13 61 310 222 286 279 253 275 273 258 263 272 306
182 192 200 167 187 200 180 155 130 139 133 143 145 172 162 174 151 160 175 194 185 178 143 187 120 176 156 76 49 142 139 134 187 214 226 256 264 235 304 284 275 271 264 304 305
170 182 167 165 157 210 198 129 138 152 138 154 138 146 169 171 175 180 177 2 158 167 112 139 106 125 121 186 170 120 175 184 255 204 210 292 258 212 216 241 277 291 329 316 306
167 177 152 152 180 201 166 141 139 140 90 91 85 73 163 164 138 164 197 173 177 159 162 97 107 146 156 53 182 159 179 180 210 192 221 285 264 211 228 252 357 329 299 299 287
150 140 160 162 184 158 127 133 103 139 89 119 112 114 143 154 131 125 152 322 166 164 162 157 161 125 49 6 14 202 199 191 195 133 222 215 253 346 60 22 340 320 317 300 255
131 146 145 180 221 131 138 138 118 37 56 71 100 114 120 148 46 126 138 86 163 155 140 140 148 158 192 193 142 179 196 201 207 212 222 231 267 265 308 318 313 314 316 313 311
85 178 195 167 164 142 143 146 141 133 70 107 71 144 141 135 94 122 108 118 56 153 134 127 157 139 218 112 97 190 190 194 206 222 203 256 283 209 261 269 269 279 285 293 297
123 154 95 120 165 138 136 160 137 100 105 105 134 144 139 157 157 153 125 133 165 78 125 223 132 131 210 194 243 251 226 230 231 241 255 275 272 74 294 312 276 263 271 280 283
172 185 118 140 165 138 134 140 144 129 23 119 125 106 95 139 126 135 97 99 143 142 121 140 128 107 208 234 177 279 230 220 219 222 234 241 255 284 268 275 269 272 280 281 277